Wind_Speed
52 52 51 50 49 49 48 47 47 47 47 46 45 44 42 41 40 39 38 38 37 36 35 34 33 32 32 31 30 30 29 28 28 27 27 27 27 27 26 26 26 26 26
53 53 52 51 51 50 49 48 48 48 47 47 47 46 45 43 41 40 39 38 38 38 37 36 35 34 34 33 32 32 31 30 30 30 29 29 29 29 29 29 29 29 29
53 53 52 52 51 50 49 49 49 48 48 47 47 47 46 44 43 41 41 41 40 39 38 38 37 37 36 36 35 34 33 32 32 32 32 32 31 31 31 31 31 31 32
53 53 53 53 52 51 50 50 51 50 50 49 48 48 48 46 44 43 42 41 41 40 40 39 38 39 38 37 36 36 35 35 34 34 34 34 33 33 33 33 33 34 34
53 53 53 53 53 53 52 51 52 51 51 50 50 49 48 48 47 46 43 43 42 42 41 40 39 38 38 38 38 38 37 37 37 36 36 36 35 35 35 34 35 35 36
52 52 53 54 54 53 52 52 53 51 51 50 51 51 50 49 48 47 46 45 43 42 42 41 40 39 39 39 39 39 39 38 38 38 38 38 37 37 37 37 37 37 37
50 51 52 54 54 53 52 52 53 52 51 51 51 51 51 50 49 48 47 46 46 45 44 42 41 40 40 40 40 40 40 40 40 40 39 39 39 39 39 38 38 38 38
47 50 52 52 53 53 52 51 52 52 52 52 52 52 51 50 50 49 48 47 46 46 45 43 42 42 42 41 41 41 41 41 41 41 41 40 40 40 39 38 38 38 38
43 46 49 51 51 51 51 51 51 51 51 52 52 53 52 51 50 49 49 48 47 46 46 45 44 44 43 43 42 42 42 42 42 42 42 41 41 41 40 39 39 40 40
41 43 46 48 50 50 51 51 51 50 50 51 52 52 51 51 50 50 49 48 48 48 47 46 45 45 45 44 44 43 43 43 43 43 43 42 42 43 43 42 42 42 41
40 41 43 46 48 49 50 51 50 50 50 51 51 51 51 51 51 50 50 50 49 48 48 47 46 46 46 45 45 45 45 44 44 44 44 44 43 44 44 43 43 43 42
39 40 41 43 45 47 48 49 50 50 51 51 51 51 51 51 50 50 49 50 50 49 49 49 48 47 47 47 46 46 46 46 45 45 45 45 45 44 44 44 44 44 43
39 39 40 41 43 45 46 47 48 49 50 51 51 51 51 50 50 50 49 48 48 48 48 48 48 48 48 48 48 47 47 46 46 45 45 45 45 44 44 44 45 45 44
38 40 39 40 41 43 45 47 48 48 49 50 51 51 50 50 50 50 51 50 50 49 49 49 49 49 48 48 48 47 47 47 47 46 46 45 45 45 45 45 45 45 45
37 38 39 39 40 42 44 46 47 48 48 49 50 50 50 50 49 50 50 50 50 50 49 50 49 48 48 48 49 48 48 47 46 46 47 46 46 45 45 45 46 46 46
35 37 38 39 40 41 43 44 45 47 48 48 48 50 50 50 50 50 51 51 51 51 50 49 50 50 49 49 49 48 48 47 47 47 47 46 47 46 47 47 46 47 47
35 37 38 39 40 41 42 43 43 44 46 46 47 48 49 48 49 49 50 51 52 52 51 51 50 49 49 49 48 48 48 47 47 47 48 47 46 47 46 46 47 47 47
34 35 37 38 38 39 41 42 43 44 45 45 45 46 48 48 47 48 49 50 51 51 51 51 50 50 49 49 47 48 47 47 48 48 48 48 48 47 47 47 47 48 48
33 34 36 37 37 38 39 41 43 44 45 45 45 45 45 46 47 48 48 49 50 50 50 50 49 49 50 49 49 49 48 48 48 48 48 49 49 48 48 48 47 48 48
33 34 35 35 37 38 39 40 42 43 44 45 45 45 44 45 46 47 46 47 49 49 49 49 49 49 49 49 48 48 49 49 49 49 49 50 49 50 49 49 48 48 48
32 33 34 35 36 37 38 39 40 42 43 44 44 45 45 44 45 46 46 46 47 48 48 49 50 49 49 49 49 49 48 48 49 49 49 49 48 48 48 48 48 48 48
29 31 33 34 35 36 38 38 39 41 41 42 43 44 45 45 44 44 44 45 45 46 47 48 49 49 50 49 50 50 49 49 49 48 48 48 47 46 47 47 47 48 48
28 29 31 33 35 36 37 37 38 40 41 41 42 42 43 44 44 44 44 44 44 45 46 47 48 48 48 49 49 49 49 49 49 49 49 48 48 47 47 48 47 47 47
27 28 30 32 33 35 36 37 38 39 40 40 41 42 43 44 44 45 46 46 45 45 45 46 47 47 47 47 47 47 48 49 49 48 48 48 48 47 47 47 47 46 46
26 28 30 31 32 33 35 36 37 38 39 39 40 41 42 43 43 44 45 45 45 45 45 45 46 46 45 45 45 45 45 46 47 47 48 47 47 47 47 46 47 47 47
26 27 28 29 31 32 33 34 35 36 37 38 39 40 41 42 42 42 43 43 43 43 44 44 44 44 44 45 45 44 44 45 46 46 47 47 46 46 46 46 47 47 47
Wind_Direction
228 228 228 228 229 229 229 228 229 229 229 229 229 230 232 233 233 233 234 234 234 234 234 235 237 239 240 241 243 245 246 247 248 250 253 255 257 260 263 264 266 267 269
227 227 228 228 228 228 228 229 229 229 230 230 230 230 232 232 233 234 235 235 236 235 235 237 239 240 242 243 245 246 248 249 250 252 255 257 259 261 263 265 266 268 269
227 226 226 227 227 227 229 229 229 229 229 230 230 230 231 232 233 234 235 236 237 236 237 239 240 241 243 244 245 247 249 250 252 254 257 259 261 262 263 266 267 268 269
227 226 226 226 227 228 229 230 229 229 229 230 230 230 231 232 233 234 236 236 238 239 240 241 242 243 244 245 247 248 250 252 254 256 258 259 261 262 264 265 267 268 269
226 226 226 227 227 229 230 229 228 228 228 229 230 230 231 232 233 234 236 237 239 240 241 242 243 244 245 247 248 249 251 253 254 256 257 259 261 262 264 265 267 268 269
227 226 226 227 227 229 230 229 229 229 229 230 230 230 231 232 234 235 236 237 239 240 242 242 244 245 246 247 249 250 252 254 255 256 257 258 260 262 263 264 266 268 268
226 226 227 227 227 228 230 229 229 230 230 231 231 230 231 232 234 235 236 238 240 241 242 242 244 246 247 248 249 251 252 254 255 257 258 258 259 261 262 264 266 267 268
226 227 227 227 228 228 229 229 230 230 230 231 230 230 231 232 234 235 237 238 240 241 242 243 245 246 248 249 250 252 253 254 256 257 258 259 260 261 262 264 265 267 269
227 227 226 226 227 228 229 229 230 230 231 231 231 231 231 232 234 235 237 238 240 242 243 244 245 246 248 249 251 252 253 255 256 256 257 259 260 260 261 263 264 266 267
225 226 226 226 226 228 229 228 229 230 230 230 230 231 231 232 234 235 237 239 241 242 243 244 245 247 248 250 251 252 254 255 256 257 257 258 259 260 261 263 265 266 268
224 225 225 225 225 226 228 229 229 230 230 230 230 230 231 233 234 236 238 239 241 242 243 246 247 248 249 250 251 252 254 255 256 257 257 257 259 260 261 263 264 266 267
223 224 225 226 226 226 226 228 228 229 230 230 231 231 232 234 235 236 238 240 241 243 245 246 247 248 249 250 252 253 254 255 256 257 258 259 260 261 262 263 263 265 267
223 225 226 228 227 226 226 227 228 229 230 230 231 232 233 234 235 237 239 240 241 243 245 246 247 248 249 251 252 253 254 255 256 257 258 259 259 260 262 263 264 264 266
225 225 226 228 228 227 226 227 227 229 230 231 232 233 235 236 238 239 241 242 243 244 245 247 248 249 250 250 251 252 254 255 256 257 258 258 259 261 261 263 264 264 266
227 227 227 227 229 229 228 228 228 230 231 232 233 234 235 237 238 240 242 243 244 244 245 247 248 249 250 250 251 253 254 255 256 256 257 257 258 259 261 262 263 264 266
230 229 229 229 229 229 230 231 231 231 232 233 234 235 237 239 240 241 242 243 244 245 245 246 248 249 250 251 252 253 254 255 255 256 256 257 258 259 260 262 263 265 266
233 231 231 232 231 231 232 233 233 233 234 235 235 236 237 238 239 241 242 243 245 245 246 247 248 249 249 251 253 253 254 254 255 256 256 258 259 260 261 262 263 265 267
233 233 233 233 232 233 234 234 234 234 235 236 236 238 238 239 240 242 243 243 244 245 246 247 248 249 250 252 253 253 254 254 256 256 257 258 259 260 262 262 264 265 267
234 234 234 235 234 235 235 236 236 237 237 237 238 239 240 240 241 242 243 243 244 245 245 247 248 249 250 251 252 253 254 255 256 257 257 258 259 261 261 262 264 265 267
236 235 235 235 235 236 237 238 237 238 239 239 240 240 241 242 243 243 243 243 244 245 246 246 247 249 250 251 252 253 254 255 256 256 257 259 260 260 261 263 264 265 267
238 237 236 236 235 236 237 239 240 240 240 241 242 242 243 244 244 244 244 244 245 246 246 247 247 248 250 251 252 253 254 255 256 256 257 258 259 259 260 262 264 265 266
239 238 237 238 237 238 239 240 241 241 241 242 243 243 244 245 245 245 246 246 246 247 247 248 249 250 250 251 252 254 254 254 255 256 257 257 258 260 261 262 264 265 266
240 240 240 241 241 240 240 241 242 243 243 243 243 244 245 246 246 246 246 247 247 248 249 249 249 250 251 251 252 253 253 253 254 255 256 257 258 259 262 263 264 265 266
244 242 242 243 242 242 242 242 243 243 244 243 244 244 245 246 248 248 249 249 249 250 250 251 251 252 252 253 253 254 254 254 254 254 256 257 258 259 261 263 264 264 266
247 246 245 244 243 243 244 244 244 244 244 245 246 246 246 247 248 248 249 249 250 250 250 251 252 252 252 252 253 254 254 255 255 255 256 258 259 260 262 263 264 265 266
247 247 247 245 244 245 245 246 245 245 245 245 246 247 247 247 248 247 247 248 248 249 250 250 250 251 251 252 253 254 254 255 256 256 257 257 258 260 261 263 264 265 267
Height
5694 5701 5707 5714 5719 5725 5731 5736 5741 5747 5752 5757 5763 5767 5771 5775 5779 5782 5786 5789 5793 5796 5800 5803 5806 5809 5811 5814 5816 5818 5820 5821 5823 5824 5825 5826 5827 5828 5829 5829 5830 5830 5830
5682 5689 5696 5703 5709 5715 5721 5726 5731 5737 5742 5747 5753 5758 5763 5767 5771 5774 5778 5781 5785 5789 5792 5796 5799 5802 5805 5807 5810 5812 5814 5815 5817 5818 5819 5820 5822 5822 5823 5824 5824 5824 5824
5671 5678 5685 5692 5698 5704 5710 5715 5721 5726 5732 5737 5743 5748 5754 5758 5762 5766 5770 5774 5777 5781 5785 5789 5792 5795 5798 5800 5803 5805 5807 5809 5810 5812 5813 5814 5815 5816 5817 5817 5817 5817 5817
5659 5667 5674 5681 5687 5694 5699 5704 5710 5715 5721 5727 5733 5739 5744 5750 5754 5758 5762 5766 5770 5774 5778 5781 5784 5787 5790 5793 5795 5797 5799 5801 5803 5804 5805 5807 5808 5809 5810 5810 5810 5810 5809
5648 5656 5663 5670 5676 5682 5688 5693 5699 5704 5710 5716 5722 5728 5734 5740 5745 5750 5754 5758 5762 5765 5769 5773 5776 5779 5782 5784 5787 5789 5791 5793 5795 5796 5798 5799 5800 5801 5802 5802 5802 5802 5802
5637 5645 5652 5659 5666 5671 5677 5683 5689 5694 5700 5706 5712 5718 5725 5730 5736 5741 5745 5749 5753 5757 5761 5764 5767 5771 5773 5776 5778 5781 5783 5785 5786 5788 5789 5791 5792 5793 5793 5794 5794 5794 5794
5627 5634 5641 5648 5655 5661 5667 5673 5679 5685 5691 5696 5702 5709 5715 5721 5726 5731 5736 5740 5744 5748 5752 5756 5759 5762 5765 5767 5769 5772 5774 5776 5777 5779 5780 5782 5783 5784 5784 5785 5785 5785 5786
5617 5624 5631 5638 5645 5651 5657 5663 5669 5675 5681 5686 5692 5698 5705 5711 5716 5721 5726 5731 5735 5739 5743 5746 5750 5753 5755 5758 5760 5763 5765 5766 5768 5769 5771 5772 5773 5774 5775 5776 5776 5776 5777
5608 5615 5621 5628 5635 5641 5648 5653 5659 5665 5671 5676 5682 5689 5695 5701 5706 5711 5716 5721 5725 5729 5733 5736 5740 5743 5746 5748 5750 5753 5755 5757 5758 5760 5761 5762 5764 5764 5765 5766 5766 5767 5767
5600 5606 5612 5618 5625 5632 5638 5644 5650 5656 5662 5667 5673 5679 5685 5691 5696 5701 5706 5711 5715 5719 5722 5726 5729 5732 5735 5738 5740 5742 5745 5746 5748 5750 5751 5752 5753 5754 5755 5756 5756 5757 5757
5593 5598 5603 5609 5615 5622 5628 5634 5641 5647 5652 5658 5663 5669 5675 5681 5686 5691 5695 5700 5704 5708 5712 5715 5718 5722 5725 5727 5730 5732 5734 5736 5737 5739 5740 5742 5743 5744 5745 5745 5746 5747 5747
5585 5591 5596 5601 5606 5612 5618 5625 5631 5637 5642 5648 5654 5659 5665 5670 5676 5680 5685 5689 5694 5697 5701 5704 5707 5710 5714 5716 5719 5721 5723 5725 5727 5728 5729 5731 5732 5733 5734 5735 5736 5736 5737
5578 5583 5588 5593 5598 5604 5609 5615 5621 5627 5633 5638 5644 5650 5655 5660 5665 5670 5674 5678 5682 5686 5690 5693 5696 5699 5702 5705 5707 5710 5712 5713 5715 5717 5718 5720 5721 5722 5723 5724 5725 5726 5726
5571 5576 5581 5585 5590 5595 5600 5606 5611 5617 5623 5628 5634 5639 5645 5650 5655 5659 5663 5667 5671 5675 5678 5681 5685 5688 5690 5693 5695 5698 5700 5702 5704 5706 5707 5709 5710 5711 5712 5713 5714 5714 5715
5564 5568 5573 5577 5581 5586 5591 5597 5602 5607 5613 5618 5623 5629 5634 5638 5642 5647 5651 5655 5659 5663 5667 5670 5673 5676 5678 5681 5684 5686 5688 5690 5692 5694 5696 5697 5698 5700 5701 5702 5703 5703 5704
5556 5561 5565 5569 5573 5578 5582 5587 5592 5598 5603 5607 5612 5617 5622 5627 5631 5635 5639 5644 5647 5651 5654 5658 5661 5664 5667 5669 5672 5674 5676 5679 5680 5682 5684 5686 5687 5688 5689 5690 5691 5692 5692
5549 5553 5557 5561 5565 5569 5574 5578 5583 5588 5592 5597 5601 5606 5611 5615 5620 5624 5628 5632 5635 5639 5642 5645 5648 5652 5655 5657 5660 5662 5664 5666 5668 5670 5672 5674 5676 5676 5677 5678 5679 5680 5680
5541 5545 5549 5553 5557 5561 5565 5569 5574 5578 5582 5587 5591 5595 5599 5604 5607 5611 5615 5619 5622 5626 5629 5633 5636 5639 5642 5645 5647 5649 5652 5654 5656 5658 5660 5662 5664 5665 5666 5666 5667 5667 5668
5533 5536 5540 5544 5548 5551 5555 5560 5564 5568 5572 5576 5580 5584 5588 5592 5596 5600 5603 5606 5610 5613 5617 5620 5623 5627 5630 5633 5635 5637 5640 5642 5644 5646 5648 5650 5651 5653 5653 5654 5655 5655 5655
5524 5527 5531 5535 5539 5542 5546 5550 5554 5558 5562 5565 5569 5573 5577 5580 5584 5588 5591 5594 5597 5600 5604 5607 5611 5614 5617 5620 5622 5624 5627 5630 5632 5634 5635 5637 5638 5639 5640 5641 5642 5642 5642
5516 5519 5522 5526 5529 5533 5537 5540 5544 5547 5551 5555 5558 5562 5566 5569 5572 5576 5579 5582 5585 5588 5591 5595 5598 5602 5605 5607 5610 5611 5614 5617 5619 5621 5623 5625 5626 5627 5628 5628 5629 5630 5629
5507 5510 5514 5517 5520 5524 5527 5531 5534 5537 5540 5544 5547 5551 5554 5557 5561 5564 5567 5570 5573 5576 5579 5582 5585 5588 5591 5594 5596 5598 5601 5603 5606 5608 5610 5612 5613 5614 5615 5616 5617 5617 5617
5500 5503 5505 5508 5512 5515 5518 5521 5524 5527 5530 5533 5536 5539 5543 5546 5549 5552 5555 5558 5560 5564 5567 5569 5573 5576 5578 5581 5583 5585 5587 5589 5592 5595 5597 5598 5600 5601 5603 5604 5604 5604 5604
5493 5495 5497 5500 5503 5505 5508 5511 5514 5517 5519 5522 5525 5528 5531 5534 5537 5540 5543 5546 5549 5551 5554 5557 5560 5563 5566 5568 5570 5572 5574 5576 5578 5581 5583 5585 5586 5588 5590 5590 5591 5591 5592
5486 5487 5489 5492 5494 5496 5499 5501 5504 5507 5509 5512 5515 5517 5520 5523 5525 5528 5531 5534 5537 5540 5543 5546 5548 5551 5554 5556 5558 5559 5562 5563 5565 5567 5570 5572 5574 5576 5577 5578 5578 5578 5579
5478 5480 5481 5483 5485 5487 5489 5492 5494 5497 5499 5502 5504 5506 5509 5511 5514 5516 5519 5522 5525 5528 5530 5533 5536 5539 5541 5543 5545 5547 5549 5551 5552 5554 5556 5559 5561 5562 5564 5564 5565 5565 5565